FW6320 Weather Reports


Display with metric or nautical units.
time (UTC)temp
F
wind
direction
speed
MPH
gust
MPH
rain 1hr
in
rain 24hr
in
rain mn
in
humidity
%
barometer
mb
20260905052523 86 185 2.0 5.0 0.00 0.00 0.00 62 1013.6
20260905052021 86 187 1.0 5.0 0.00 0.00 0.00 62 1013.5
20260905051552 86 0 1.0 7.0 0.00 0.00 0.00 62 1013.5
20260905051018 86 177 2.0 7.0 0.00 0.00 0.00 62 1013.5
20260905050519 86 173 1.0 7.0 0.00 0.00 0.00 62 1013.6
20260905050050 86 0 1.0 7.0 0.00 0.00 0.00 62 1013.5
20260905045524 86 174 1.0 8.0 0.00 0.00 0.00 62 1013.5
20260905045027 86 0 1.0 8.0 0.00 0.00 0.00 62 1013.4
20260905044549 86 160 1.0 8.0 0.00 0.00 0.00 61 1013.4
20260905044024 86 149 1.0 7.0 0.00 0.00 0.00 61 1013.5
20260905043524 86 165 2.0 8.0 0.00 0.00 0.00 60 1013.5
20260905043103 87 0 3.0 8.0 0.00 0.00 0.00 60 1013.4
20260905042526 87 143 2.0 8.0 0.00 0.00 0.00 59 1013.4
20260905042021 87 0 2.0 8.0 0.00 0.00 0.00 58 1013.4
20260905041543 87 144 3.0 9.0 0.00 0.00 0.00 58 1013.4
20260905041020 87 155 5.0 9.0 0.00 0.00 0.00 58 1013.3
20260905040521 87 146 5.0 9.0 0.00 0.00 0.00 58 1013.3
20260905040048 87 152 5.0 9.0 0.00 0.00 0.00 58 1013.3
20260905035523 87 146 4.0 8.0 0.00 0.00 0.00 57 1013.2
20260905035026 88 142 4.0 8.0 0.00 0.00 0.00 57 1013.3
20260905034543 88 146 3.0 7.0 0.00 0.00 0.00 57 1013.4
20260905034023 88 144 3.0 7.0 0.00 0.00 0.00 57 1013.4
20260905033522 88 141 3.0 7.0 0.00 0.00 0.00 56 1013.4
20260905033042 88 136 3.0 7.0 0.00 0.00 0.00 56 1013.4
20260905032521 88 120 4.0 8.0 0.00 0.00 0.00 56 1013.3
20260905032025 89 144 4.0 9.0 0.00 0.00 0.00 56 1013.1
20260905031544 89 144 4.0 10.0 0.00 0.00 0.00 55 1013.1
20260905031020 89 139 5.0 10.0 0.00 0.00 0.00 55 1013.1
20260905030521 89 137 5.0 10.0 0.00 0.00 0.00 55 1013.1
20260905030050 89 141 5.0 9.0 0.00 0.00 0.00 55 1013.2
20260905025521 89 144 5.0 10.0 0.00 0.00 0.00 55 1013.1
20260905025024 90 137 5.0 10.0 0.00 0.00 0.00 55 1013.0
20260905024547 90 134 4.0 8.0 0.00 0.00 0.00 55 1012.9
20260905024023 90 124 5.0 10.0 0.00 0.00 0.00 55 1012.8
20260905023531 90 140 5.0 10.0 0.00 0.00 0.00 54 1012.8
20260905023043 90 146 5.0 9.0 0.00 0.00 0.00 54 1012.8
20260905022526 90 123 4.0 11.0 0.00 0.00 0.00 54 1012.8
20260905022026 90 144 5.0 11.0 0.00 0.00 0.00 54 1012.8
20260905021546 91 138 6.0 10.0 0.00 0.00 0.00 54 1012.5
20260905021019 91 159 5.0 11.0 0.00 0.00 0.00 54 1012.5
20260905020524 91 135 7.0 11.0 0.00 0.00 0.00 54 1012.5
20260905020053 91 134 6.0 13.0 0.00 0.00 0.00 54 1012.4
20260905015520 91 119 6.0 13.0 0.00 0.00 0.00 54 1012.4
20260905015023 91 161 5.0 11.0 0.00 0.00 0.00 53 1012.2
20260905014547 91 134 6.0 11.0 0.00 0.00 0.00 53 1012.1
20260905014026 91 107 6.0 11.0 0.00 0.00 0.00 53 1012.0
20260905013522 92 137 6.0 11.0 0.00 0.00 0.00 53 1012.0
20260905013043 92 115 5.0 12.0 0.00 0.00 0.00 53 1012.0
20260905012523 92 123 6.0 12.0 0.00 0.00 0.00 52 1011.9
20260905012022 92 133 5.0 11.0 0.00 0.00 0.00 52 1011.7
20260905011606 92 137 5.0 12.0 0.00 0.00 0.00 52 1011.7
20260905011020 92 140 5.0 12.0 0.00 0.00 0.00 51 1011.7
20260905010519 93 113 5.0 12.0 0.00 0.00 0.00 51 1011.7
20260905010044 93 104 5.0 10.0 0.00 0.00 0.00 50 1011.7
20260905005521 93 139 4.0 11.0 0.00 0.00 0.00 50 1011.6
20260905005021 93 118 5.0 11.0 0.00 0.00 0.00 49 1011.5
20260905004550 94 124 5.0 10.0 0.00 0.00 0.00 48 1011.4
20260905004024 94 130 5.0 11.0 0.00 0.00 0.00 47 1011.4
20260905003523 94 130 5.0 11.0 0.00 0.00 0.00 46 1011.4
20260905003053 94 136 6.0 12.0 0.00 0.00 0.00 46 1011.2
20260905002526 95 137 6.0 12.0 0.00 0.00 0.00 46 1011.1
20260905002022 95 156 5.0 12.0 0.00 0.00 0.00 46 1011.2
20260905001546 95 155 8.0 12.0 0.00 0.00 0.00 46 1011.1
20260905001022 95 137 6.0 12.0 0.00 0.00 0.00 46 1011.1
20260905000521 95 125 7.0 12.0 0.00 0.00 0.00 46 1011.0
20260905000049 95 123 5.0 11.0 0.00 0.00 0.00 46 1011.1
20260904235525 96 123 4.0 15.0 0.00 0.00 0.00 46 1011.0
20260904235025 95 146 4.0 15.0 0.00 0.00 0.00 46 1011.0
20260904234550 96 125 8.0 15.0 0.00 0.00 0.00 46 1011.0
20260904234024 96 109 6.0 11.0 0.00 0.00 0.00 46 1011.0
20260904233523 96 129 4.0 14.0 0.00 0.00 0.00 46 1011.2
20260904233055 96 171 3.0 15.0 0.00 0.00 0.00 47 1011.1
20260904232526 96 142 8.0 15.0 0.00 0.00 0.00 46 1011.1
20260904232019 96 165 7.0 15.0 0.00 0.00 0.00 46 1011.0
20260904231543 96 144 9.0 15.0 0.00 0.00 0.00 46 1011.1
20260904231022 96 176 9.0 14.0 0.00 0.00 0.00 46 1011.0
20260904230518 96 137 7.0 14.0 0.00 0.00 0.00 46 1011.0
20260904230045 96 136 7.0 14.0 0.00 0.00 0.00 46 1011.1
20260904225522 96 101 5.0 14.0 0.00 0.00 0.00 46 1011.1
20260904225020 97 138 8.0 14.0 0.00 0.00 0.00 45 1011.3
20260904224541 97 158 2.0 11.0 0.00 0.00 0.00 45 1011.2
20260904224024 97 174 4.0 11.0 0.00 0.00 0.00 45 1011.2
20260904223524 97 194 3.0 13.0 0.00 0.00 0.00 46 1011.2
20260904223047 97 182 7.0 14.0 0.00 0.00 0.00 45 1011.3
20260904222522 97 113 6.0 14.0 0.00 0.00 0.00 45 1011.3
20260904222021 97 122 8.0 14.0 0.00 0.00 0.00 45 1011.2
20260904221541 97 134 7.0 16.0 0.00 0.00 0.00 46 1011.3
20260904221021 97 157 7.0 16.0 0.00 0.00 0.00 45 1011.4
20260904220520 97 119 4.0 16.0 0.00 0.00 0.00 46 1011.3
20260904215528 97 123 5.0 16.0 0.00 0.00 0.00 46 1011.5
20260904215026 97 171 6.0 12.0 0.00 0.00 0.00 47 1011.6
20260904214546 98 182 3.0 11.0 0.00 0.00 0.00 47 1011.6
20260904214022 97 121 4.0 11.0 0.00 0.00 0.00 48 1011.5
20260904213525 97 129 5.0 12.0 0.00 0.00 0.00 47 1011.6
20260904213050 97 150 4.0 12.0 0.00 0.00 0.00 47 1011.7
20260904212526 97 140 7.0 12.0 0.00 0.00 0.00 46 1011.7
20260904212021 98 136 4.0 12.0 0.00 0.00 0.00 46 1011.8
20260904211543 98 144 5.0 12.0 0.00 0.00 0.00 48 1011.9
20260904211019 98 171 6.0 12.0 0.00 0.00 0.00 47 1011.9
20260904210519 98 188 4.0 10.0 0.00 0.00 0.00 46 1011.9
20260904210040 98 219 4.0 13.0 0.00 0.00 0.00 47 1012.0
20260904205524 98 143 4.0 13.0 0.00 0.00 0.00 47 1012.0
20260904205018 97 152 3.0 13.0 0.00 0.00 0.00 47 1012.2
20260904204551 97 136 3.0 17.0 0.00 0.00 0.00 47 1012.2
20260904204025 97 139 7.0 17.0 0.00 0.00 0.00 46 1012.3
20260904203524 97 163 6.0 12.0 0.00 0.00 0.00 47 1012.4
20260904203044 96 163 7.0 14.0 0.00 0.00 0.00 47 1012.4
20260904202522 98 147 5.0 14.0 0.00 0.00 0.00 46 1012.4
20260904202023 97 194 7.0 14.0 0.00 0.00 0.00 46 1012.5
20260904201555 97 202 6.0 14.0 0.00 0.00 0.00 47 1012.6
20260904201024 97 126 8.0 14.0 0.00 0.00 0.00 46 1012.6
20260904200521 97 140 4.0 14.0 0.00 0.00 0.00 47 1012.7
20260904200045 97 161 4.0 13.0 0.00 0.00 0.00 48 1012.8
20260904195521 96 175 6.0 18.0 0.00 0.00 0.00 48 1012.9
20260904195025 96 138 5.0 18.0 0.00 0.00 0.00 47 1012.9
20260904194551 96 137 7.0 18.0 0.00 0.00 0.00 47 1012.9
20260904194028 97 197 5.0 11.0 0.00 0.00 0.00 47 1013.0
20260904193524 96 163 3.0 13.0 0.00 0.00 0.00 48 1013.0
20260904193046 96 176 6.0 14.0 0.00 0.00 0.00 48 1013.0
20260904192527 95 170 4.0 14.0 0.00 0.00 0.00 51 1013.1
20260904192025 96 142 6.0 14.0 0.00 0.00 0.00 49 1013.3
20260904191543 96 132 4.0 14.0 0.00 0.00 0.00 49 1013.2
20260904191022 96 155 5.0 14.0 0.00 0.00 0.00 48 1013.3
20260904190522 96 141 4.0 16.0 0.00 0.00 0.00 47 1013.4
20260904190042 96 170 5.0 16.0 0.00 0.00 0.00 49 1013.5
20260904185520 95 153 3.0 18.0 0.00 0.00 0.00 50 1013.5
20260904185020 95 153 8.0 18.0 0.00 0.00 0.00 49 1013.5
20260904184548 95 122 5.0 16.0 0.00 0.00 0.00 50 1013.7
20260904184028 95 119 5.0 16.0 0.00 0.00 0.00 51 1013.7
20260904183527 94 201 8.0 16.0 0.00 0.00 0.00 51 1013.8
20260904183043 93 148 4.0 14.0 0.00 0.00 0.00 50 1013.8
20260904182525 94 202 4.0 16.0 0.00 0.00 0.00 49 1013.9
20260904182030 94 145 6.0 16.0 0.00 0.00 0.00 47 1013.9
20260904181541 94 187 3.0 12.0 0.00 0.00 0.00 47 1014.0
20260904181025 93 194 6.0 12.0 0.00 0.00 0.00 47 1014.0
20260904180524 92 177 5.0 11.0 0.00 0.00 0.00 46 1014.1
20260904180055 93 211 4.0 12.0 0.00 0.00 0.00 47 1014.3
20260904175521 92 198 5.0 12.0 0.00 0.00 0.00 46 1014.3
20260904175020 92 183 5.0 12.0 0.00 0.00 0.00 46 1014.4
20260904174550 91 200 6.0 11.0 0.00 0.00 0.00 46 1014.4
20260904174019 91 199 4.0 10.0 0.00 0.00 0.00 48 1014.4
20260904173522 91 167 5.0 10.0 0.00 0.00 0.00 48 1014.5
20260904173105 90 184 4.0 10.0 0.00 0.00 0.00 53 1014.5
20260904172527 89 206 5.0 10.0 0.00 0.00 0.00 56 1014.6
20260904172022 89 196 6.0 12.0 0.00 0.00 0.00 59 1014.7
20260904171552 89 203 6.0 12.0 0.00 0.00 0.00 60 1014.8
20260904171023 89 233 6.0 13.0 0.00 0.00 0.00 60 1014.8
20260904170517 88 190 7.0 13.0 0.00 0.00 0.00 60 1014.9
20260904170049 89 213 5.0 12.0 0.00 0.00 0.00 58 1014.9
20260904165525 88 213 6.0 12.0 0.00 0.00 0.00 61 1014.9
20260904165025 87 198 5.0 11.0 0.00 0.00 0.00 63 1015.0
20260904164549 87 207 5.0 12.0 0.00 0.00 0.00 64 1015.0
20260904164024 86 214 6.0 12.0 0.00 0.00 0.00 65 1015.0
20260904163529 86 202 6.0 12.0 0.00 0.00 0.00 65 1015.0
20260904163046 86 199 5.0 9.0 0.00 0.00 0.00 65 1015.1
20260904162524 86 189 4.0 9.0 0.00 0.00 0.00 65 1015.1
20260904162021 86 209 6.0 11.0 0.00 0.00 0.00 65 1015.1
20260904161543 86 221 4.0 11.0 0.00 0.00 0.00 64 1015.0
20260904161025 85 199 6.0 11.0 0.00 0.00 0.00 65 1015.0
20260904160528 85 196 6.0 10.0 0.00 0.00 0.00 65 1015.1
20260904160048 85 207 5.0 10.0 0.00 0.00 0.00 64 1015.1
20260904155524 85 195 5.0 9.0 0.00 0.00 0.00 66 1015.0
20260904155025 84 200 4.0 8.0 0.00 0.00 0.00 69 1015.0
20260904154549 84 173 4.0 8.0 0.00 0.00 0.00 71 1015.0
20260904154023 84 207 4.0 8.0 0.00 0.00 0.00 71 1015.0
20260904153526 84 192 3.0 10.0 0.00 0.00 0.00 72 1015.0
20260904153050 84 205 4.0 10.0 0.00 0.00 0.00 72 1015.0
20260904152524 84 211 5.0 10.0 0.00 0.00 0.00 72 1015.0
20260904152024 84 219 4.0 10.0 0.00 0.00 0.00 73 1014.9
20260904151546 84 178 3.0 10.0 0.00 0.00 0.00 74 1014.8
20260904151026 84 182 2.0 11.0 0.00 0.00 0.00 74 1014.9
20260904150529 84 190 3.0 11.0 0.00 0.00 0.00 74 1014.8
20260904150053 84 192 3.0 9.0 0.00 0.00 0.00 75 1014.8
20260904145524 83 203 4.0 9.0 0.00 0.00 0.00 75 1014.9
20260904145025 83 232 4.0 11.0 0.00 0.00 0.00 75 1015.0
20260904144552 84 178 3.0 11.0 0.00 0.00 0.00 76 1014.8
20260904144023 83 192 5.0 11.0 0.00 0.00 0.00 77 1014.8
20260904143521 82 232 3.0 8.0 0.00 0.00 0.00 80 1014.7
20260904143043 82 196 3.0 7.0 0.00 0.00 0.00 80 1014.8
20260904142525 81 186 1.0 7.0 0.00 0.00 0.00 81 1014.8
20260904142026 81 134 2.0 11.0 0.00 0.00 0.00 82 1014.7
20260904141548 80 175 2.0 11.0 0.00 0.00 0.00 82 1014.6
20260904141024 80 175 5.0 11.0 0.00 0.00 0.00 83 1014.7
20260904140524 80 159 2.0 11.0 0.00 0.00 0.00 83 1014.6
20260904140049 80 140 2.0 11.0 0.00 0.00 0.00 83 1014.6
20260904135525 80 142 5.0 13.0 0.00 0.00 0.00 84 1014.6
20260904135024 80 150 4.0 13.0 0.00 0.00 0.00 84 1014.5
20260904134547 80 160 4.0 11.0 0.00 0.00 0.00 84 1014.4
20260904134022 80 145 4.0 11.0 0.00 0.00 0.00 84 1014.4
20260904133525 79 129 5.0 9.0 0.00 0.00 0.00 84 1014.4
20260904133042 79 125 4.0 9.0 0.00 0.00 0.00 85 1014.4
20260904132525 79 0 2.0 9.0 0.00 0.00 0.00 85 1014.4
20260904132024 79 134 5.0 10.0 0.00 0.00 0.00 84 1014.3
20260904131547 79 137 2.0 10.0 0.00 0.00 0.00 85 1014.3
20260904131028 79 0 4.0 8.0 0.00 0.00 0.00 85 1014.3
20260904130524 79 151 3.0 9.0 0.00 0.00 0.00 85 1014.1
20260904130047 79 140 3.0 9.0 0.00 0.00 0.00 85 1014.1
20260904125527 79 137 4.0 9.0 0.00 0.00 0.00 85 1014.2
20260904125024 79 150 2.0 8.0 0.00 0.00 0.00 85 1014.0
20260904124558 79 0 1.0 10.0 0.00 0.00 0.00 85 1014.0
20260904124026 78 139 5.0 10.0 0.00 0.00 0.00 85 1014.0
20260904123525 78 139 5.0 8.0 0.00 0.00 0.00 85 1013.9
20260904123049 78 137 4.0 8.0 0.00 0.00 0.00 85 1013.9
20260904122524 78 139 3.0 7.0 0.00 0.00 0.00 85 1014.0
20260904122022 78 137 2.0 7.0 0.00 0.00 0.00 85 1013.9
20260904121541 78 138 3.0 9.0 0.00 0.00 0.00 85 1013.8
20260904121024 78 130 3.0 9.0 0.00 0.00 0.00 85 1013.7
20260904120524 78 146 2.0 7.0 0.00 0.00 0.00 85 1013.6
20260904120047 78 0 0.0 3.0 0.00 0.00 0.00 85 1013.5
20260904115525 78 0 1.0 7.0 0.00 0.00 0.00 85 1013.5
20260904115028 78 173 1.0 7.0 0.00 0.00 0.00 85 1013.6
20260904114549 78 141 1.0 5.0 0.00 0.00 0.00 85 1013.7
20260904114025 78 144 2.0 8.0 0.00 0.00 0.00 85 1013.7
20260904113524 78 122 3.0 8.0 0.00 0.00 0.00 85 1013.6
20260904113052 78 0 1.0 5.0 0.00 0.00 0.00 85 1013.6
20260904112525 78 0 0.0 3.0 0.00 0.00 0.00 85 1013.5
20260904112026 78 143 0.0 7.0 0.00 0.00 0.00 85 1013.5
20260904111543 78 146 1.0 8.0 0.00 0.00 0.00 85 1013.6
20260904111024 78 142 3.0 8.0 0.00 0.00 0.00 85 1013.5
20260904110525 78 144 4.0 9.0 0.00 0.00 0.00 85 1013.4
20260904110049 78 148 4.0 9.0 0.00 0.00 0.00 85 1013.5
20260904105526 78 141 3.0 9.0 0.00 0.00 0.00 85 1013.5
20260904105025 78 142 3.0 9.0 0.00 0.00 0.00 85 1013.6
20260904104552 78 140 3.0 9.0 0.00 0.00 0.00 85 1013.5
20260904104023 78 151 1.0 6.0 0.00 0.00 0.00 85 1013.5
20260904103526 78 143 2.0 6.0 0.00 0.00 0.00 85 1013.4
20260904103048 78 0 0.0 4.0 0.00 0.00 0.00 84 1013.3
20260904102522 78 0 0.0 5.0 0.00 0.00 0.00 84 1013.4
20260904102023 78 0 0.0 9.0 0.00 0.00 0.00 85 1013.3
20260904101543 78 185 0.0 9.0 0.00 0.00 0.00 85 1013.3
20260904101022 78 153 2.0 9.0 0.00 0.00 0.00 84 1013.3
20260904100525 79 136 1.0 8.0 0.00 0.00 0.00 84 1013.3
20260904100043 79 144 3.0 8.0 0.00 0.00 0.00 84 1013.3
20260904095524 79 0 0.0 7.0 0.00 0.00 0.00 83 1013.2
20260904095024 79 0 1.0 8.0 0.00 0.00 0.00 83 1013.1
20260904094600 79 0 1.0 8.0 0.00 0.00 0.00 83 1013.1
20260904094024 79 0 1.0 8.0 0.00 0.00 0.00 83 1013.1
20260904093527 79 156 2.0 8.0 0.00 0.00 0.00 83 1013.2
20260904093048 79 159 1.0 7.0 0.00 0.00 0.00 83 1013.2
20260904092522 79 0 1.0 7.0 0.00 0.00 0.00 83 1013.2
20260904092021 79 155 1.0 10.0 0.00 0.00 0.00 83 1013.2
20260904091542 79 0 1.0 10.0 0.00 0.00 0.00 83 1013.0
20260904091023 79 139 2.0 6.0 0.00 0.00 0.00 83 1013.1
20260904090521 79 0 1.0 5.0 0.00 0.00 0.00 83 1013.1
20260904090040 79 0 1.0 12.0 0.00 0.00 0.00 83 1013.0
20260904085524 79 182 2.0 12.0 0.00 0.00 0.00 83 1013.1
20260904085026 79 0 4.0 12.0 0.00 0.00 0.00 83 1013.1
20260904084548 79 162 1.0 10.0 0.00 0.00 0.00 83 1013.0
20260904084023 79 0 3.0 10.0 0.00 0.00 0.00 82 1013.1
20260904083525 79 143 2.0 9.0 0.00 0.00 0.00 82 1012.9
20260904083044 79 147 1.0 8.0 0.00 0.00 0.00 82 1013.0
20260904082524 79 144 2.0 8.0 0.00 0.00 0.00 81 1013.0
20260904082022 79 163 3.0 8.0 0.00 0.00 0.00 81 1013.0
20260904081600 79 173 1.0 8.0 0.00 0.00 0.00 81 1013.0
20260904081025 79 142 2.0 7.0 0.00 0.00 0.00 80 1012.9
20260904080525 79 152 0.0 5.0 0.00 0.00 0.00 80 1013.1
20260904080042 79 0 0.0 5.0 0.00 0.00 0.00 80 1013.0
20260904075525 80 196 2.0 8.0 0.00 0.00 0.00 80 1013.1
20260904075026 80 179 2.0 8.0 0.00 0.00 0.00 79 1013.0
20260904074604 80 0 2.0 6.0 0.00 0.00 0.00 79 1013.0
20260904074024 80 206 2.0 7.0 0.00 0.00 0.00 79 1013.1
20260904073524 80 193 2.0 7.0 0.00 0.00 0.00 78 1013.1
20260904073100 80 182 1.0 7.0 0.00 0.00 0.00 78 1013.1
20260904072523 80 198 1.0 8.0 0.00 0.00 0.00 78 1013.1
20260904072021 80 199 3.0 8.0 0.00 0.00 0.00 78 1013.3
20260904071543 80 183 3.0 8.0 0.00 0.00 0.00 77 1013.3
20260904071025 80 193 2.0 8.0 0.00 0.00 0.00 77 1013.3
20260904070528 80 184 2.0 7.0 0.00 0.00 0.00 77 1013.3
20260904070053 80 147 0.0 9.0 0.00 0.00 0.00 76 1013.3
20260904065523 80 155 2.0 9.0 0.00 0.00 0.00 76 1013.3
20260904065025 80 183 3.0 9.0 0.00 0.00 0.00 76 1013.3
20260904064548 80 0 3.0 9.0 0.00 0.00 0.00 75 1013.5
20260904064021 80 190 2.0 13.0 0.00 0.00 0.00 75 1013.5
20260904063521 81 203 3.0 13.0 0.00 0.00 0.00 75 1013.4
20260904063042 81 119 1.0 9.0 0.00 0.00 0.00 74 1013.4
20260904062523 81 160 2.0 9.0 0.00 0.00 0.00 74 1013.4
20260904062021 81 136 1.0 8.0 0.00 0.00 0.00 73 1013.4
20260904061541 81 0 2.0 8.0 0.00 0.00 0.00 73 1013.4
20260904061028 81 162 1.0 7.0 0.00 0.00 0.00 73 1013.4
20260904060526 81 137 1.0 8.0 0.00 0.00 0.00 72 1013.5
20260904060043 81 0 2.0 8.0 0.00 0.00 0.00 72 1013.4
20260904055523 81 150 1.0 7.0 0.00 0.00 0.00 72 1013.4
20260904055025 81 0 2.0 8.0 0.00 0.00 0.00 72 1013.4
20260904054549 81 157 0.0 9.0 0.00 0.00 0.00 72 1013.4
20260904054022 81 165 3.0 10.0 0.00 0.00 0.00 71 1013.5
20260904053521 81 0 3.0 10.0 0.00 0.00 0.00 72 1013.6
20260904053042 81 146 3.0 9.0 0.00 0.00 0.00 72 1013.6